sat.trackr.live / text

‹ back to catalog

STARLINK-32382

NORAD 61258 · 2024-175R

PAYLOAD ACTIVE UNKNOWN

§ Identity

Operator
Country
US
Launch date
2024-09-25
Launch site
AFWTR
Launch vehicle
Mass (kg)
RCS (m²)

Purposes: comms

External: N2YO · Heavens-Above · Gunter

§ Orbital elements

Epoch: 2026-05-25T04:00:03.998880Z

Period
93.85 min
Inclination
53.1590°
Eccentricity
0.0000965
Mean motion
15.34383207 rev/d
Perigee alt
462.1 km
Apogee alt
463.4 km
Semi-major
6,840.9 km
B*
7.8418e-4
RAAN
198.7474°
Arg perigee
96.6913°
Mean anomaly
258.0341°
Rev number
575

§ Raw data

STARLINK-323821 61258U 24175R   26145.16671295  .00026197  00000+0  78418-3 0  99912 61258  53.1590 198.7474 0000965  96.6913 258.0341 15.34383207  5757

JSON: /api/v1/satellites/61258 · /tle

For live sub-satellite position, see the globe view (requires WebGL).

§ Visibility from observer

Set your observer location to see the next 7 days of passes ≥ 10°. The values pass through the URL so the page stays shareable.

No JS? Fill the form by hand. The geolocation button needs JavaScript.